[[{"header":{"parameterUnit":"m.s-1","parameterCategory":1,"la1":30.2991,"la2":30.254,"lo1":-89.0895,"lo2":-89.0444,"dy":0.0017,"dx":0.0017,"nx":28,"ny":28,"refTime":"2024-07-03T21:00:00:Z","depth":0,"parameterNumber":2,"parameterNumberName":"U-component_of_WINDS"},"data":[0,0,0,0,0,0,0,0,0,0,0,0,0,0,0,0,0,0,0,0,0,0,0,0,0,0,0,0,0,0,0,0,0,0,0,0,0,0,0,0,0,0,0,0,0,0,0,0,0,0,0,0,0,0,0,0,0,0,1.8359,1.8358,0,1.8261,1.826,1.8258,1.8141,1.8139,1.8138,1.8136,1.8036,1.8035,1.8034,0,0,0,0,0,0,0,0,0,0,0,0,0,1.8446,1.8445,1.8359,1.8358,1.8357,1.8261,1.826,1.8258,1.8142,1.8139,1.8137,1.8135,1.8037,1.8035,1.8034,0,0,0,0,0,0,0,0,0,0,0,0,0,1.8384,1.8445,1.836,1.8287,1.828,1.8261,1.8259,1.8258,1.8142,1.8139,1.8137,1.8134,1.8037,1.8036,1.8034,1.8079,0,0,1.803,1.8029,0,0,0,0,0,0,0,0,1.8388,1.8381,1.8299,1.8292,1.8284,1.821,1.8253,1.8198,1.8143,1.8194,1.8136,1.8133,1.8096,1.809,1.8077,1.8075,1.807,1.8029,1.8029,1.8028,1.8028,0,0,0,0,0,0,0,1.8392,1.8385,1.832,1.8298,1.8289,1.8259,1.8248,1.8242,1.8162,1.819,1.8181,1.8171,1.8092,1.8079,1.8074,1.8069,1.803,1.8028,1.8027,1.8027,1.8094,1.8097,0,0,0,0,0,0,1.8408,1.8389,1.8323,1.8317,1.833,1.826,1.8247,1.8237,1.8162,1.8147,1.8173,1.8166,1.8083,1.8076,1.807,1.8115,1.8028,1.8027,1.8026,1.8092,1.8095,1.8098,0,0,0,0,0,0,1.841,1.8403,1.8327,1.8351,1.8339,1.8261,1.8251,1.8236,1.8223,1.8149,1.8134,1.8175,1.8081,1.8072,1.8077,1.811,1.8026,1.8025,1.8088,1.8093,1.8096,1.8207,0,0,0,0,0,0,1.8413,1.8404,1.8421,1.8352,1.8338,1.8336,1.8253,1.8236,1.8221,1.821,1.8147,1.8134,1.8078,1.808,1.8076,1.8106,1.8023,1.8085,1.809,1.8095,1.82,1.8214,1.8226,0,0,0,0,0,1.8416,1.8457,1.8422,1.8415,1.8357,1.8338,1.833,1.8265,1.8224,1.824,1.8192,1.8136,1.8108,1.8081,1.8075,1.8106,1.8083,1.8089,1.8095,1.8194,1.8211,1.8226,0,0,0,0,0,0,1.8532,1.8447,1.8407,1.8427,1.8391,1.8319,1.8336,1.8286,1.8261,1.8252,1.8172,1.8159,1.8172,1.814,1.8112,1.8144,1.8087,1.8092,1.8164,1.818,1.8193,1.8199,1.8022,0,0,0,0,0,1.856,1.8552,1.8478,1.8502,1.8486,1.8415,1.8404,1.8356,1.8316,1.83,1.8252,1.8215,1.8197,1.8188,1.8168,1.8196,1.8178,1.8214,1.8227,1.8239,1.8243,1.8252,1.8266,1.8117,1.8117,1.8117,0,0,1.8618,1.857,1.857,1.8524,1.849,1.8483,1.8402,1.8399,1.8392,1.83,1.8299,1.8264,1.8217,1.8233,1.8237,1.8206,1.828,1.8246,1.8256,1.8254,1.826,1.8274,1.8286,1.8121,1.8121,1.812,0,0,1.8717,1.8682,1.8696,1.8664,1.8614,1.8566,1.857,1.8505,1.8477,1.8476,1.8405,1.8397,1.8369,1.8337,1.8318,1.8405,1.8351,1.8401,1.8469,1.8478,1.849,1.85,1.8527,1.8539,1.8406,1.8406,1.8406,0,1.8795,1.878,1.8711,1.871,1.8691,1.8607,1.862,1.8592,1.8539,1.8527,1.8494,1.8455,1.8418,1.8423,1.8444,1.8432,1.8432,1.8406,1.8494,1.8503,1.8511,1.8537,1.8548,1.8412,1.8412,1.8411,1.841,0,1.8876,1.8868,1.8886,1.8834,1.8818,1.8825,1.8755,1.8747,1.8701,1.8657,1.8655,1.8608,1.8575,1.8574,1.853,1.8572,1.8554,1.8509,1.8449,1.8533,1.8555,1.8564,1.8421,1.8419,1.8417,1.8415,0,0,1.9045,1.8954,1.8962,1.8936,1.8874,1.8866,1.8869,1.8836,1.8829,1.8795,1.8793,1.8771,1.8728,1.8706,1.8657,1.8667,1.8734,1.8619,1.8617,1.8639,1.8774,1.8806,1.8818,1.8699,1.8701,1.8702,1.8776,0,1.9131,1.9129,1.9065,1.9081,1.9071,1.8991,1.8992,1.8954,1.8913,1.8898,1.8852,1.8836,1.8782,1.8768,1.8773,1.8725,1.8759,1.8719,1.8695,1.8695,1.8706,1.883,1.8865,1.8937,1.8785,1.8787,1.8788,0,1.923,1.92,1.9215,1.915,1.9143,1.9146,1.9109,1.9097,1.9051,1.902,1.8995,1.894,1.8937,1.8882,1.8875,1.8849,1.8836,1.881,1.8812,1.8804,1.8744,1.8823,1.8959,1.8969,1.8801,1.88,1.8799,0,1.9347,1.9311,1.9313,1.9295,1.9221,1.9224,1.9193,1.9145,1.9129,1.9098,1.9085,1.9055,1.9038,1.9015,1.8952,1.8919,1.8951,1.8892,1.8923,1.8925,1.8931,1.8931,1.9063,1.8929,1.8929,1.8929,1.8928,0,1.9447,1.9458,1.9364,1.9366,1.9376,1.9303,1.9315,1.9276,1.9234,1.9226,1.9156,1.915,1.9069,1.9054,1.9005,1.9005,1.8998,1.8972,1.8958,1.8976,1.8979,1.8964,1.8956,1.8931,1.8931,1.893,1.893,0,1.9577,1.9516,1.9513,1.9443,1.9425,1.9435,1.9375,1.9373,1.9327,1.9318,1.9311,1.924,1.9217,1.9153,1.9116,1.9083,1.9095,1.9072,1.911,1.9101,1.9134,1.913,1.9258,1.927,1.9132,1.9134,1.9135,0,1.9643,1.9649,1.958,1.9569,1.9541,1.9525,1.9508,1.9437,1.9422,1.937,1.9374,1.9346,1.9319,1.9288,1.9232,1.9202,1.9175,1.9222,1.917,1.9187,1.9171,1.917,1.9169,1.9232,1.9234,1.9236,1.9237,0,1.9766,1.9735,1.9712,1.9679,1.966,1.963,1.9597,1.9592,1.9512,1.9499,1.9475,1.9454,1.9415,1.9387,1.9348,1.9315,1.9262,1.9254,1.9259,1.9275,1.9296,1.9281,1.9137,1.9251,1.9249,1.9248,1.9247,1.9247,1.9863,1.9864,1.9814,1.9791,1.9758,1.9728,1.9722,1.9675,1.9654,1.9616,1.9576,1.9556,1.9509,1.945,1.9422,1.9404,1.9376,1.9384,1.9386,1.9388,1.9395,1.9302,1.9397,1.9397,1.9396,1.9396,1.9396,0,1.9978,1.9943,1.9922,1.9877,1.9858,1.9811,1.9771,1.9758,1.9741,1.9702,1.9677,1.9649,1.9621,1.9564,1.953,1.9527,1.9502,1.9521,1.9518,1.9511,1.9423,1.9421,1.9542,1.9542,1.9542,1.9542,1.9542,1.9541,2.0036,2.0034,1.9997,1.9977,1.9941,1.9921,1.9902,1.9873,1.9841,1.9812,1.9789,1.9751,1.9704,1.9666,1.9638,1.9622,1.9611,1.9638,1.9613,1.9532,1.9518,1.9504,1.9501,1.9637,1.9637,1.9701,1.9702,1.9702]},{"header":{"parameterUnit":"m.s-1","parameterCategory":1,"la1":30.2991,"la2":30.254,"lo1":-89.0895,"lo2":-89.0444,"dy":0.0017,"dx":0.0017,"nx":28,"ny":28,"refTime":"2024-07-03T21:00:00:Z","depth":0,"parameterNumber":3,"parameterNumberName":"V-component_of_WINDS"},"data":[0,0,0,0,0,0,0,0,0,0,0,0,0,0,0,0,0,0,0,0,0,0,0,0,0,0,0,0,0,0,0,0,0,0,0,0,0,0,0,0,0,0,0,0,0,0,0,0,0,0,0,0,0,0,0,0,0,0,3.7488,3.749,0,3.762,3.7622,3.7623,3.7604,3.7602,3.76,3.7598,3.7732,3.7738,3.7743,0,0,0,0,0,0,0,0,0,0,0,0,0,3.7216,3.7222,3.7488,3.749,3.7491,3.762,3.7622,3.7624,3.7605,3.7602,3.7599,3.7597,3.773,3.7737,3.7744,0,0,0,0,0,0,0,0,0,0,0,0,0,3.734,3.7223,3.7488,3.7497,3.75,3.762,3.7622,3.7624,3.7605,3.7602,3.7599,3.7596,3.7728,3.7736,3.7745,3.7864,0,0,3.7771,3.7774,0,0,0,0,0,0,0,0,3.7333,3.735,3.7494,3.7497,3.75,3.7592,3.7576,3.7705,3.7606,3.7565,3.7598,3.7594,3.7688,3.77,3.7732,3.787,3.7876,3.7771,3.7777,3.778,3.7783,0,0,0,0,0,0,0,3.7325,3.7344,3.754,3.7496,3.75,3.7494,3.7508,3.76,3.7644,3.7568,3.7567,3.7583,3.7689,3.7724,3.7735,3.7878,3.7771,3.7779,3.7784,3.7787,3.8118,3.8121,0,0,0,0,0,0,3.7314,3.7337,3.7536,3.7544,3.7407,3.7502,3.7517,3.7566,3.7643,3.7651,3.7586,3.7582,3.7711,3.7725,3.774,3.7882,3.778,3.7788,3.7793,3.8114,3.8118,3.8122,0,0,0,0,0,0,3.7308,3.7332,3.7531,3.7441,3.7466,3.751,3.7565,3.757,3.7605,3.7656,3.7664,3.7614,3.7709,3.7728,3.7833,3.7887,3.7792,3.78,3.811,3.8115,3.812,3.817,0,0,0,0,0,0,3.73,3.733,3.7376,3.7442,3.747,3.7622,3.7568,3.7575,3.762,3.7616,3.7684,3.7692,3.7708,3.782,3.7841,3.7897,3.7806,3.8105,3.8112,3.8119,3.8163,3.8176,3.8187,0,0,0,0,0,3.7291,3.7385,3.7378,3.7403,3.7529,3.7626,3.7642,3.7659,3.7624,3.7671,3.7703,3.769,3.7878,3.7831,3.7854,3.7914,3.8102,3.811,3.8118,3.8158,3.8174,3.8187,0,0,0,0,0,0,3.7324,3.7394,3.7387,3.7506,3.756,3.7622,3.7681,3.7675,3.774,3.7733,3.7751,3.7766,3.7872,3.7903,3.785,3.8032,3.7985,3.7998,3.8007,3.8022,3.8034,3.8024,3.7813,0,0,0,0,0,3.7345,3.7418,3.7475,3.7574,3.7601,3.7637,3.7679,3.7687,3.7744,3.7767,3.7807,3.7862,3.7933,3.798,3.8048,3.8168,3.8182,3.822,3.8232,3.8241,3.8253,3.8317,3.8334,3.815,3.815,3.8149,0,0,3.739,3.7437,3.7482,3.7582,3.7625,3.7699,3.7656,3.7737,3.7792,3.7779,3.788,3.7911,3.7974,3.8086,3.8138,3.8115,3.8306,3.8252,3.8259,3.8265,3.8327,3.8344,3.836,3.8155,3.8154,3.8153,0,0,3.7509,3.7552,3.7639,3.7682,3.7748,3.777,3.7791,3.7854,3.7874,3.7976,3.7967,3.8032,3.8155,3.82,3.8238,3.8372,3.8362,3.8394,3.8456,3.8518,3.8533,3.8545,3.8592,3.8608,3.8405,3.8405,3.8405,0,3.7556,3.7668,3.7684,3.7765,3.7809,3.78,3.7887,3.7928,3.8013,3.8042,3.8017,3.8169,3.8211,3.8333,3.8365,3.8397,3.842,3.8386,3.8529,3.8542,3.8555,3.8599,3.8617,3.8409,3.8408,3.8408,3.8408,0,3.7721,3.7799,3.7861,3.7942,3.7992,3.8076,3.8104,3.8153,3.8156,3.8181,3.8284,3.8334,3.8411,3.8441,3.8445,3.8563,3.8547,3.8525,3.8478,3.8575,3.8617,3.8634,3.8413,3.8412,3.8411,3.841,0,0,3.7866,3.7954,3.7976,3.8012,3.8083,3.8143,3.8225,3.8301,3.8342,3.84,3.8469,3.8572,3.8552,3.8596,3.8605,3.866,3.8761,3.8631,3.8633,3.8652,3.8892,3.8907,3.8926,3.8754,3.8758,3.876,3.8886,0,3.799,3.8137,3.8153,3.8283,3.8354,3.8346,3.8418,3.8468,3.8494,3.8557,3.8584,3.8657,3.8626,3.8652,3.8706,3.8737,3.8809,3.8728,3.8817,3.882,3.8801,3.8948,3.8965,3.9081,3.8902,3.8905,3.8907,0,3.8155,3.8218,3.8355,3.8414,3.8444,3.8508,3.8578,3.8639,3.8696,3.871,3.8758,3.876,3.8844,3.8794,3.8909,3.8854,3.8892,3.8912,3.8917,3.8926,3.8869,3.8959,3.9119,3.9136,3.8934,3.8931,3.893,0,3.8245,3.8363,3.846,3.8491,3.8563,3.8608,3.864,3.8693,3.8737,3.8798,3.8826,3.8897,3.8935,3.8988,3.9008,3.8971,3.9122,3.9074,3.9135,3.9135,3.9167,3.9165,3.9334,3.9193,3.9193,3.9193,3.9192,0,3.8382,3.8466,3.8501,3.856,3.8653,3.867,3.8762,3.8792,3.8839,3.8903,3.8901,3.8962,3.8985,3.9049,3.9065,3.9157,3.9175,3.9188,3.9191,3.9187,3.9186,3.9212,3.9204,3.9197,3.9196,3.9195,3.9194,0,3.8497,3.8525,3.8629,3.8688,3.8705,3.8771,3.8821,3.8878,3.8902,3.8983,3.9003,3.9041,3.9116,3.9141,3.9232,3.9243,3.935,3.9347,3.9331,3.9331,3.939,3.9384,3.9581,3.9607,3.945,3.9452,3.9453,0,3.8583,3.8647,3.8712,3.8755,3.8789,3.8858,3.8902,3.8921,3.8968,3.9036,3.9085,3.9159,3.9219,3.9339,3.9374,3.9443,3.9441,3.9505,3.9451,3.9445,3.944,3.9436,3.9442,3.9515,3.9517,3.9518,3.9519,0,3.873,3.874,3.8804,3.8873,3.8926,3.8982,3.9035,3.907,3.9097,3.9149,3.9225,3.9272,3.9364,3.9437,3.9508,3.954,3.9534,3.9536,3.9553,3.955,3.9538,3.9544,3.9357,3.9531,3.953,3.9529,3.9528,3.9528,3.8832,3.8888,3.8943,3.9014,3.9056,3.9105,3.9161,3.9192,3.9256,3.9332,3.9339,3.9421,3.9475,3.9569,3.9604,3.9668,3.965,3.9676,3.9682,3.9688,3.9692,3.9528,3.9681,3.9681,3.968,3.968,3.968,0,3.8978,3.9013,3.9078,3.9152,3.9208,3.9198,3.9256,3.9303,3.9375,3.9425,3.9484,3.9571,3.9642,3.9682,3.9753,3.9796,3.9795,3.9814,3.9811,3.9818,3.9704,3.9682,3.9814,3.9814,3.9814,3.9814,3.9813,3.9813,3.9061,3.9154,3.917,3.9284,3.9318,3.9398,3.9432,3.9477,3.9517,3.9614,3.9673,3.9699,3.9745,3.9818,3.9882,3.9892,3.9918,3.9938,3.9946,3.984,3.9826,3.9813,3.9791,3.9944,3.9944,4.0054,4.0055,4.0056]}]]